[[{"header":{"parameterUnit":"m.s-1","parameterCategory":1,"la1":30.2991,"la2":30.254,"lo1":-89.0895,"lo2":-89.0444,"dy":0.0017,"dx":0.0017,"nx":28,"ny":28,"refTime":"2024-08-16T03:00:00:Z","depth":0,"parameterNumber":2,"parameterNumberName":"U-component_of_WINDS"},"data":[0,0,0,0,0,0,0,0,0,0,0,0,0,0,0,0,0,0,0,0,0,0,0,0,0,0,0,0,0,0,0,0,0,0,0,0,0,0,0,0,0,0,0,0,0,0,0,0,0,0,0,0,0,0,0,0,0,0,1.7225,1.7223,0,1.7008,1.7006,1.7003,1.6849,1.6847,1.6846,1.6845,1.662,1.6615,1.661,0,0,0,0,0,0,0,0,0,0,0,0,0,1.7502,1.7498,1.7225,1.7223,1.722,1.7009,1.7006,1.7003,1.6849,1.6847,1.6846,1.6844,1.6622,1.6616,1.661,0,0,0,0,0,0,0,0,0,0,0,0,0,1.7343,1.7496,1.7226,1.7118,1.7106,1.7009,1.7005,1.7002,1.6849,1.6847,1.6845,1.6844,1.6623,1.6616,1.6609,1.6602,0,0,1.6587,1.6584,0,0,0,0,0,0,0,0,1.7352,1.7333,1.7136,1.7125,1.7112,1.6954,1.702,1.6868,1.685,1.6947,1.6845,1.6843,1.6732,1.6716,1.6679,1.6591,1.6581,1.6586,1.6582,1.6579,1.6577,0,0,0,0,0,0,0,1.7364,1.7342,1.7139,1.7134,1.7119,1.7079,1.7054,1.6991,1.6852,1.6938,1.6926,1.6903,1.6725,1.6687,1.6673,1.6578,1.6587,1.658,1.6576,1.6573,1.6469,1.647,0,0,0,0,0,0,1.7392,1.7352,1.7146,1.7133,1.723,1.7075,1.7048,1.7006,1.6853,1.6828,1.6905,1.6896,1.67,1.6681,1.6664,1.6642,1.6579,1.6572,1.6568,1.6467,1.6469,1.6471,0,0,0,0,0,0,1.7399,1.7375,1.7155,1.7239,1.7208,1.7072,1.7027,1.7003,1.6964,1.6828,1.6802,1.6891,1.6698,1.6675,1.6618,1.6633,1.6569,1.6562,1.6465,1.6468,1.647,1.6601,0,0,0,0,0,0,1.7407,1.7379,1.7376,1.724,1.7204,1.7114,1.7028,1.7,1.6952,1.694,1.6808,1.6784,1.6694,1.6629,1.6611,1.6621,1.6557,1.6463,1.6466,1.6469,1.6595,1.6608,1.6619,0,0,0,0,0,1.7418,1.7421,1.7376,1.7352,1.7198,1.7115,1.7094,1.6992,1.6954,1.6949,1.6861,1.6788,1.6635,1.6625,1.6602,1.6611,1.6462,1.6465,1.6469,1.6589,1.6605,1.6618,0,0,0,0,0,0,1.7561,1.7402,1.735,1.731,1.7227,1.7089,1.708,1.7012,1.6938,1.6929,1.6804,1.6775,1.6731,1.6665,1.6657,1.6594,1.6539,1.6538,1.6638,1.6652,1.6664,1.668,1.6551,0,0,0,0,0,1.7589,1.7536,1.7399,1.7377,1.7338,1.7217,1.7177,1.7105,1.7014,1.6978,1.6885,1.6799,1.673,1.6688,1.6617,1.6585,1.6552,1.658,1.6592,1.6602,1.6603,1.6577,1.6587,1.6483,1.6482,1.6482,0,0,1.7644,1.755,1.7525,1.7403,1.7331,1.7277,1.7188,1.7136,1.7094,1.6969,1.6909,1.6839,1.6733,1.6688,1.6664,1.6632,1.6624,1.6607,1.6616,1.661,1.6582,1.6592,1.6601,1.6485,1.6484,1.6484,0,0,1.7717,1.7642,1.7614,1.7543,1.7434,1.7353,1.7347,1.7218,1.7166,1.7105,1.7009,1.6957,1.6843,1.677,1.6719,1.6763,1.6692,1.6744,1.6806,1.6782,1.679,1.6797,1.681,1.6816,1.6745,1.6745,1.6745,0,1.7799,1.7716,1.7608,1.7561,1.7509,1.7394,1.7363,1.7299,1.7173,1.7139,1.7106,1.6958,1.688,1.6814,1.6825,1.6788,1.6775,1.6757,1.6798,1.6804,1.6808,1.6819,1.6825,1.6752,1.6751,1.675,1.675,0,1.7821,1.7765,1.7755,1.7636,1.7583,1.7545,1.7429,1.7389,1.7321,1.7243,1.718,1.7081,1.6987,1.6967,1.6901,1.6891,1.6875,1.6822,1.6764,1.6827,1.6835,1.6838,1.6762,1.6759,1.6757,1.6755,0,0,1.7979,1.78,1.7798,1.7741,1.7612,1.7565,1.7521,1.743,1.7396,1.7313,1.727,1.7175,1.7124,1.7066,1.699,1.6971,1.7008,1.6919,1.6915,1.6937,1.6988,1.7027,1.7034,1.6961,1.6961,1.6962,1.6996,0,1.803,1.7944,1.7845,1.7793,1.7738,1.7627,1.7587,1.7503,1.7428,1.7369,1.7286,1.7219,1.716,1.7123,1.7098,1.7009,1.7016,1.7005,1.6918,1.6916,1.6945,1.7038,1.7079,1.7116,1.6998,1.6999,1.6999,0,1.8079,1.8001,1.7944,1.7817,1.779,1.7756,1.7663,1.7609,1.751,1.7457,1.7391,1.731,1.7254,1.7205,1.7125,1.712,1.7078,1.7028,1.7027,1.7013,1.696,1.7024,1.7126,1.7131,1.7003,1.7003,1.7003,0,1.8196,1.8077,1.8026,1.7981,1.7833,1.7812,1.7749,1.7648,1.7599,1.7517,1.7483,1.7397,1.7349,1.7282,1.7179,1.7153,1.7109,1.7051,1.7061,1.7064,1.7055,1.7057,1.7149,1.7033,1.7033,1.7033,1.7033,0,1.8262,1.8231,1.8076,1.8045,1.8006,1.7891,1.7854,1.7781,1.7692,1.7643,1.7542,1.7498,1.7365,1.7304,1.7223,1.7167,1.7147,1.7101,1.7079,1.7108,1.7114,1.7078,1.7071,1.7034,1.7034,1.7034,1.7033,0,1.8386,1.8282,1.8219,1.8084,1.8049,1.8025,1.7908,1.7872,1.7792,1.7731,1.771,1.7583,1.7506,1.7396,1.7286,1.7231,1.7186,1.7153,1.722,1.7207,1.7222,1.7221,1.7292,1.7294,1.7181,1.7182,1.7183,0,1.8435,1.8407,1.8269,1.8229,1.817,1.8107,1.8056,1.7942,1.7892,1.7776,1.7754,1.7669,1.7595,1.7477,1.7374,1.7288,1.725,1.7281,1.7237,1.7266,1.7247,1.7249,1.7244,1.7291,1.7293,1.7295,1.7296,0,1.853,1.8479,1.8411,1.8323,1.8265,1.819,1.8111,1.8084,1.7951,1.7901,1.7821,1.7764,1.7651,1.7567,1.7467,1.74,1.7325,1.7311,1.7308,1.7337,1.7375,1.7352,1.7247,1.7309,1.7308,1.7307,1.7306,1.7306,1.8615,1.8585,1.8482,1.8408,1.8336,1.8264,1.8223,1.8137,1.8069,1.7968,1.7904,1.7827,1.7725,1.7584,1.752,1.7456,1.7426,1.7423,1.7421,1.7421,1.743,1.7388,1.7438,1.7437,1.7437,1.7436,1.7436,0,1.8703,1.8631,1.8565,1.8456,1.8397,1.8334,1.8241,1.8196,1.8129,1.8042,1.7971,1.7878,1.7795,1.7686,1.7595,1.7565,1.7528,1.7544,1.7544,1.7529,1.7464,1.7474,1.7576,1.7576,1.7575,1.7575,1.7575,1.7575,1.8742,1.8686,1.8624,1.8531,1.8458,1.8382,1.8335,1.8266,1.8195,1.8097,1.8028,1.7957,1.7859,1.776,1.7681,1.765,1.762,1.7647,1.7606,1.7547,1.7534,1.7522,1.7531,1.7642,1.7642,1.7675,1.7676,1.7676]},{"header":{"parameterUnit":"m.s-1","parameterCategory":1,"la1":30.2991,"la2":30.254,"lo1":-89.0895,"lo2":-89.0444,"dy":0.0017,"dx":0.0017,"nx":28,"ny":28,"refTime":"2024-08-16T03:00:00:Z","depth":0,"parameterNumber":3,"parameterNumberName":"V-component_of_WINDS"},"data":[0,0,0,0,0,0,0,0,0,0,0,0,0,0,0,0,0,0,0,0,0,0,0,0,0,0,0,0,0,0,0,0,0,0,0,0,0,0,0,0,0,0,0,0,0,0,0,0,0,0,0,0,0,0,0,0,0,0,2.0254,2.0255,0,2.0359,2.036,2.0361,2.043,2.0431,2.0431,2.0432,2.0529,2.0531,2.0533,0,0,0,0,0,0,0,0,0,0,0,0,0,2.0102,2.0104,2.0254,2.0255,2.0257,2.0359,2.036,2.0361,2.043,2.0431,2.0431,2.0432,2.0528,2.053,2.0533,0,0,0,0,0,0,0,0,0,0,0,0,0,2.0183,2.0105,2.0254,2.0304,2.0309,2.0358,2.036,2.0362,2.043,2.0431,2.0432,2.0432,2.0527,2.053,2.0533,2.0538,0,0,2.0543,2.0544,0,0,0,0,0,0,0,0,2.0178,2.0189,2.0295,2.03,2.0306,2.0383,2.0342,2.0421,2.043,2.0384,2.0432,2.0433,2.0479,2.0486,2.0504,2.0543,2.0547,2.0543,2.0545,2.0547,2.0548,0,0,0,0,0,0,0,2.0173,2.0184,2.0295,2.0296,2.0303,2.0317,2.0329,2.0357,2.0425,2.0388,2.0393,2.0405,2.0482,2.05,2.0506,2.0548,2.0543,2.0546,2.0548,2.0549,2.0594,2.0593,0,0,0,0,0,0,2.0161,2.0179,2.0292,2.0298,2.0243,2.0319,2.0333,2.0357,2.0425,2.0437,2.0404,2.0408,2.0495,2.0503,2.051,2.0519,2.0547,2.055,2.0551,2.0595,2.0594,2.0593,0,0,0,0,0,0,2.0157,2.017,2.0288,2.024,2.0256,2.0321,2.0348,2.0359,2.0378,2.0438,2.045,2.0412,2.0495,2.0506,2.0531,2.0523,2.0551,2.0554,2.0596,2.0595,2.0594,2.0537,0,0,0,0,0,0,2.0153,2.0169,2.0174,2.024,2.0259,2.031,2.0347,2.036,2.0384,2.039,2.0448,2.0458,2.0497,2.0526,2.0534,2.0528,2.0556,2.0597,2.0595,2.0594,2.054,2.0535,2.053,0,0,0,0,0,2.0147,2.0152,2.0174,2.0187,2.0267,2.031,2.032,2.0367,2.0383,2.0387,2.0426,2.0456,2.0523,2.0528,2.0538,2.0533,2.0597,2.0596,2.0594,2.0542,2.0536,2.053,0,0,0,0,0,0,2.008,2.0162,2.0187,2.0214,2.0255,2.0321,2.0328,2.0359,2.0393,2.0396,2.0451,2.0463,2.0482,2.051,2.0514,2.054,2.0564,2.0564,2.0521,2.0515,2.051,2.0502,2.0559,0,0,0,0,0,2.0069,2.01,2.0168,2.0186,2.0205,2.0263,2.0283,2.0316,2.0359,2.0375,2.0416,2.0453,2.0482,2.05,2.0531,2.0545,2.0557,2.0546,2.054,2.0536,2.0535,2.0542,2.0537,2.0588,2.0588,2.0588,0,0,2.0045,2.0094,2.011,2.0173,2.0209,2.0236,2.0277,2.0304,2.0323,2.0378,2.0406,2.0436,2.0481,2.05,2.0511,2.0524,2.0524,2.0534,2.053,2.0531,2.054,2.0535,2.053,2.0587,2.0587,2.0587,0,0,2.0016,2.0057,2.0076,2.0111,2.0165,2.0203,2.0207,2.0269,2.0292,2.0321,2.0362,2.0384,2.0434,2.0464,2.0486,2.0466,2.0494,2.0474,2.0446,2.0452,2.0448,2.0445,2.0436,2.0432,2.0473,2.0473,2.0473,0,1.9979,2.0026,2.008,2.0106,2.0131,2.0185,2.0201,2.0231,2.0291,2.0305,2.032,2.0384,2.0418,2.0443,2.0439,2.0455,2.0459,2.0468,2.0445,2.0442,2.044,2.0432,2.0428,2.047,2.0471,2.0471,2.0471,0,1.9976,2.0007,2.0015,2.0074,2.01,2.0121,2.0175,2.0194,2.0225,2.026,2.0286,2.0329,2.0368,2.0377,2.0406,2.0406,2.0413,2.0436,2.046,2.0431,2.0424,2.0422,2.0466,2.0467,2.0468,2.0469,0,0,1.9907,1.9997,1.9999,2.0026,2.0089,2.0112,2.0133,2.0175,2.0189,2.0227,2.0244,2.0285,2.0307,2.0331,2.0363,2.0369,2.0348,2.0391,2.0393,2.038,2.0347,2.0328,2.0324,2.0368,2.0367,2.0367,2.0343,0,1.9886,1.9932,1.9981,2.0007,2.0035,2.0086,2.0104,2.0142,2.0175,2.02,2.0235,2.0263,2.029,2.0305,2.0313,2.0349,2.0342,2.0351,2.038,2.038,2.0366,2.0321,2.0302,2.0277,2.0341,2.034,2.034,0,1.9868,1.9907,1.9937,1.9997,2.001,2.0026,2.0067,2.0091,2.0134,2.0158,2.0185,2.022,2.0241,2.0263,2.0291,2.0297,2.0311,2.033,2.033,2.0333,2.0357,2.0321,2.0271,2.0266,2.0337,2.0337,2.0337,0,1.9812,1.9872,1.9898,1.9919,1.999,1.9999,2.0028,2.0072,2.0093,2.0128,2.0141,2.0176,2.0195,2.022,2.0262,2.0275,2.0284,2.0311,2.03,2.0299,2.0299,2.0298,2.0248,2.0311,2.0311,2.0311,2.0311,0,1.9782,1.9798,1.9874,1.9889,1.9907,1.9961,1.9976,2.0009,2.0048,2.0067,2.0113,2.0129,2.0185,2.0207,2.024,2.0256,2.0264,2.0281,2.0289,2.0276,2.0274,2.0285,2.0287,2.031,2.031,2.0311,2.0311,0,1.9723,1.9775,1.9805,1.987,1.9886,1.9896,1.995,1.9964,2.0,2.0024,2.0033,2.0087,2.0116,2.0161,2.0201,2.0223,2.0232,2.0248,2.0219,2.0224,2.021,2.021,2.0164,2.016,2.0227,2.0226,2.0226,0,1.97,1.9714,1.978,1.9799,1.9827,1.9855,1.9878,1.9931,1.9951,2.0001,2.0008,2.0041,2.007,2.0111,2.0152,2.0183,2.0197,2.018,2.0202,2.0188,2.0194,2.0192,2.0192,2.0173,2.0172,2.0172,2.0171,0,1.9653,1.9677,1.971,1.9751,1.9778,1.9811,1.9847,1.9858,1.9918,1.9938,1.997,1.9992,2.0034,2.0064,2.0101,2.0127,2.0157,2.0164,2.0163,2.0148,2.013,2.0138,2.0202,2.0164,2.0165,2.0165,2.0166,2.0166,1.9609,1.9623,1.9672,1.9706,1.9739,1.9771,1.9788,1.9827,1.9855,1.9896,1.9924,1.9953,1.9992,2.0045,2.0069,2.0089,2.0103,2.0102,2.0101,2.01,2.0094,2.0129,2.0096,2.0096,2.0097,2.0097,2.0097,0,1.9562,1.9597,1.9628,1.9678,1.9703,1.9734,1.9775,1.9793,1.9819,1.9855,1.9883,1.9917,1.9946,1.999,2.0021,2.0029,2.0044,2.0035,2.0034,2.0039,2.0081,2.0078,2.0023,2.0023,2.0023,2.0023,2.0023,2.0023,1.9541,1.9566,1.9596,1.9635,1.9669,1.97,1.972,1.9748,1.9778,1.9815,1.984,1.987,1.9908,1.9943,1.9969,1.9981,1.9989,1.9976,1.9991,2.0029,2.0036,2.0043,2.004,1.9978,1.9978,1.9948,1.9948,1.9947]}]]